Weather History for Nuiqsut, AK

Change the Weather History Date:

Sunday, October 21, 2012

  Actual Average (PAKU) Record (PAKU)
Temperature  
Mean Temperature 16 °F -  
Max Temperature 23 °F 17 °F 37 °F (1991)
Min Temperature 7 °F 8 °F -23 °F (1983)
Degree Days  
Heating Degree Days 50    
Moisture  
Dew Point 13 °F    
Average Humidity 86    
Maximum Humidity 92    
Minimum Humidity 80    
Precipitation  
Precipitation 0.00 in - - ()
Sea Level Pressure  
Sea Level Pressure 30.41 in    
Wind  
Wind Speed 12 mph (South)    
Max Wind Speed 16 mph    
Max Gust Speed -    
Visibility 10 miles    
Events      
Averages and records for this station are not official NWS values.
T = Trace of Precipitation, MM = Missing Value Source: NWS Daily Summary

Daily Weather History Graph

Daily Weather History Graph

Search for Another Location

Airport:

Trip Planner

Search our weather history database for the weather conditions in past years. The results will help you decide how hot, cold, wet, or windy it might be!

Date:

Astronomy

Oct. 21, 2012 Rise Set
Actual Time 9:47 AM AKDT 5:47 PM AKDT
Civil Twilight 8:40 AM AKDT 6:54 PM AKDT
Nautical Twilight 7:28 AM AKDT 8:06 PM AKDT
Astronomical Twilight 6:16 AM AKDT 9:17 PM AKDT
Moon 5:33 PM AKDT (10/21) 10:46 PM AKDT (10/21)
Length of Visible Light 10h 13m
Length of Day
7h 59m
Waxing Crescent, 47% of the Moon is Illuminated
Oct 21
Waxing Crescent
Oct 21
First Quarter
Oct 29
Full
Nov 6
Last Quarter
Nov 13
New

Hourly Weather History & Observations

Time (AKDT) Temp. Windchill Dew Point Humidity Pressure Visibility Wind Dir Wind Speed Gust Speed Precip Events Conditions
12:53 AM 18.0 °F 4.2 °F 15.1 °F 88% 30.46 in 10.0 mi South 13.8 mph - N/A   Overcast
2:53 AM 19.9 °F 6.2 °F 17.1 °F 89% 30.45 in 10.0 mi South 15.0 mph - N/A   Overcast
3:53 AM 21.9 °F 9.8 °F 19.0 °F 89% 30.45 in 10.0 mi South 12.7 mph - N/A   Overcast
4:53 AM 21.9 °F 9.8 °F 19.0 °F 89% 30.45 in 10.0 mi South 12.7 mph - N/A   Overcast
5:53 AM 23.0 °F 10.6 °F 19.9 °F 88% 30.45 in 10.0 mi South 13.8 mph - N/A   Overcast
6:53 AM 21.0 °F 8.6 °F 18.0 °F 88% 30.45 in 10.0 mi South 12.7 mph - N/A   Overcast
7:53 AM 19.9 °F 7.3 °F 17.1 °F 89% 30.44 in 10.0 mi South 12.7 mph - N/A   Overcast
8:53 AM 19.9 °F 6.7 °F 16.0 °F 85% 30.43 in 10.0 mi South 13.8 mph - N/A   Overcast
9:53 AM 19.9 °F 7.3 °F 16.0 °F 85% 30.44 in 10.0 mi South 12.7 mph - N/A   Overcast
10:53 AM 19.9 °F 6.2 °F 16.0 °F 85% 30.43 in 10.0 mi South 15.0 mph - N/A   Overcast
11:53 AM 19.9 °F 5.7 °F 16.0 °F 85% 30.42 in 10.0 mi South 16.1 mph - N/A   Overcast
12:53 PM 18.0 °F 4.8 °F 12.9 °F 81% 30.41 in 10.0 mi South 12.7 mph - N/A   Partly Cloudy
1:53 PM 16.0 °F 2.3 °F 10.9 °F 81% 30.41 in 10.0 mi South 12.7 mph - N/A   Clear
2:53 PM 14.0 °F 2.0 °F 10.0 °F 84% 30.41 in 10.0 mi South 9.2 mph - N/A   Clear
3:53 PM 14.0 °F 1.2 °F 9.0 °F 80% 30.40 in 10.0 mi South 10.4 mph - N/A   Clear
4:53 PM 15.1 °F 3.3 °F 10.0 °F 80% 30.39 in 10.0 mi South 9.2 mph - N/A   Clear
5:53 PM 14.0 °F 2.0 °F 9.0 °F 80% 30.38 in 10.0 mi South 9.2 mph - N/A   Clear
6:53 PM 12.0 °F 1.5 °F 8.1 °F 84% 30.38 in 10.0 mi South 6.9 mph - N/A   Clear
7:53 PM 10.0 °F -1.9 °F 7.0 °F 87% 30.37 in 10.0 mi South 8.1 mph - N/A   Clear
8:53 PM 8.1 °F -3.2 °F 5.0 °F 87% 30.37 in 10.0 mi South 6.9 mph - N/A   Clear
9:53 PM 9.0 °F 0.6 °F 6.1 °F 88% 30.35 in 10.0 mi South 4.6 mph - N/A   Clear
10:53 PM 9.0 °F - 7.0 °F 92% 30.35 in 10.0 mi Calm Calm - N/A   Clear
11:54 PM 7.0 °F -1.7 °F 5.0 °F 92% 30.35 in 10.0 mi Variable 4.6 mph - N/A   Unknown